Hanscom AFB, MA

7:05 AM EST on December 11, 2016 (GMT -0500)
Hanscom

Weather History for KBED - November, 2011

Change the Weather History Date:

Thursday, November 10, 2011

  Actual Average Record
Temperature  
Mean Temperature 58 °F -  
Max Temperature 64 °F 52 °F 71 °F (1999)
Min Temperature 51 °F 34 °F 15 °F (1965)
Degree Days  
Heating Degree Days 8    
Growing Degree Days 8 (Base 50)    
Moisture  
Dew Point 56 °F    
Average Humidity 94    
Maximum Humidity 100    
Minimum Humidity 77    
Precipitation  
Precipitation 0.44 in - - ()
Sea Level Pressure  
Sea Level Pressure 29.80 in    
Wind  
Wind Speed 2 mph (ESE)    
Max Wind Speed 13 mph    
Max Gust Speed -    
Visibility 5 miles    
Events Rain    
Averages and records for this station are not official NWS values.
T = Trace of Precipitation, MM = Missing Value Source: NWS Daily Summary

Daily Weather History Graph

Daily Weather History Graph

Search for Another Location

Airport or City:

Trip Planner

Search our weather history database for the weather conditions in past years. The results will help you decide how hot, cold, wet, or windy it might be!

Date:

Astronomy

Nov. 10, 2011 Rise Set
Actual Time 6:29 AM EST 4:27 PM EST
Civil Twilight 5:59 AM EST 4:57 PM EST
Nautical Twilight 5:25 AM EST 5:31 PM EST
Astronomical Twilight 4:52 AM EST 6:04 PM EST
Moon 4:12 PM EST (11/10) 6:20 AM EST (11/10)
Length of Visible Light 10h 58m
Length of Day
9h 58m
Full, 100% of the Moon is Illuminated
Nov 10
Full
Nov 10
Full
Nov 18
Last Quarter
Nov 25
New
Dec 2
First Quarter

Hourly Weather History & Observations

Time (EST) Temp. Dew Point Humidity Pressure Visibility Wind Dir Wind Speed Gust Speed Precip Events Conditions
12:56 AM 52.0 °F 52.0 °F 100% 30.08 in 7.0 mi Calm Calm - N/A   Overcast
1:56 AM 51.1 °F 51.1 °F 100% 30.07 in 6.0 mi Calm Calm - N/A   Overcast
2:19 AM 51.8 °F 51.8 °F 100% 30.02 in 6.0 mi Calm Calm - N/A   Overcast
2:41 AM 51.8 °F 51.8 °F 100% 30.02 in 7.0 mi Calm Calm - N/A   Overcast
2:56 AM 52.0 °F 51.1 °F 97% 30.05 in 6.0 mi Calm Calm - N/A   Overcast
3:56 AM 53.1 °F 52.0 °F 96% 30.03 in 5.0 mi Calm Calm - N/A   Overcast
4:05 AM 53.6 °F 51.8 °F 94% 29.99 in 6.0 mi Calm Calm - N/A   Overcast
4:56 AM 53.1 °F 52.0 °F 96% 30.02 in 5.0 mi Calm Calm - N/A   Overcast
5:56 AM 54.0 °F 52.0 °F 93% 30.01 in 6.0 mi Calm Calm - N/A   Overcast
6:51 AM 55.4 °F 53.6 °F 94% 29.96 in 2.0 mi Calm Calm - N/A   Overcast
6:56 AM 54.0 °F 54.0 °F 100% 30.00 in 2.0 mi Calm Calm - N/A   Overcast
7:03 AM 55.4 °F 53.6 °F 94% 29.96 in 5.0 mi Calm Calm - N/A   Overcast
7:28 AM 55.4 °F 53.6 °F 94% 29.96 in 2.0 mi Calm Calm - N/A   Overcast
7:56 AM 55.0 °F 55.0 °F 100% 30.00 in 2.0 mi Calm Calm - N/A   Overcast
8:27 AM 57.2 °F 55.4 °F 94% 29.96 in 3.0 mi Calm Calm - N/A   Overcast
8:56 AM 57.0 °F 55.0 °F 93% 30.00 in 3.0 mi Calm Calm - N/A   Overcast
9:56 AM 60.8 °F 57.2 °F 88% 29.92 in 7.0 mi Calm Calm - N/A   Overcast
10:56 AM 64.4 °F 57.2 °F 77% 29.88 in 10.0 mi SSE 11.5 mph - N/A   Mostly Cloudy
11:03 AM 62.6 °F 57.2 °F 82% 29.88 in 10.0 mi SE 11.5 mph - N/A   Mostly Cloudy
11:23 AM 62.6 °F 57.2 °F 82% 29.86 in 10.0 mi SE 6.9 mph - N/A   Overcast
11:25 AM 62.6 °F 57.2 °F 82% 29.86 in 10.0 mi SSE 6.9 mph - N/A   Overcast
11:38 AM 62.6 °F 57.2 °F 82% 29.85 in 6.0 mi SSE 8.1 mph - 0.01 in Rain Light Rain
11:45 AM 62.6 °F 59.0 °F 88% 29.85 in 5.0 mi SE 5.8 mph - 0.02 in Rain Rain
11:56 AM 62.1 °F 59.0 °F 90% 29.88 in 5.0 mi SSE 6.9 mph - 0.03 in Rain Light Rain
12:03 PM 62.6 °F 59.0 °F 88% 29.84 in 8.0 mi SE 5.8 mph - 0.00 in Rain Light Rain
12:32 PM 60.8 °F 60.8 °F 100% 29.82 in 6.0 mi East 4.6 mph - 0.01 in   Overcast
12:56 PM 61.0 °F 60.1 °F 97% 29.83 in 2.0 mi East 5.8 mph - 0.02 in Rain Light Rain
1:56 PM 60.1 °F 59.0 °F 96% 29.78 in 2.0 mi ENE 4.6 mph - 0.07 in Rain Light Rain
2:36 PM 59.0 °F 59.0 °F 100% 29.72 in 5.0 mi East 6.9 mph - 0.02 in Rain Light Rain
2:43 PM 59.0 °F 59.0 °F 100% 29.72 in 1.8 mi East 6.9 mph - 0.03 in Rain Rain
2:56 PM 59.0 °F 59.0 °F 100% 29.75 in 2.0 mi East 5.8 mph - 0.07 in Rain Rain
3:13 PM 59.0 °F 57.2 °F 94% 29.71 in 2.0 mi East 6.9 mph - 0.06 in Rain Rain
3:56 PM 57.2 °F 57.2 °F 100% 29.68 in 2.0 mi East 6.9 mph - N/A Rain Rain
4:56 PM 57.0 °F 55.9 °F 96% 29.68 in 2.0 mi East 6.9 mph - 0.07 in Rain Light Rain
5:03 PM 57.2 °F 55.4 °F 94% 29.65 in 7.0 mi East 5.8 mph - 0.01 in Rain Light Rain
5:12 PM 57.2 °F 55.4 °F 94% 29.64 in 10.0 mi East 3.5 mph - 0.01 in Rain Light Rain
5:33 PM 57.2 °F 55.4 °F 94% 29.63 in 4.0 mi Calm Calm - 0.01 in Rain Light Rain
5:56 PM 57.0 °F 55.9 °F 96% 29.65 in 2.0 mi Calm Calm - 0.02 in Rain Light Rain
6:03 PM 57.2 °F 55.4 °F 94% 29.61 in 6.0 mi Calm Calm - 0.00 in Rain Light Rain
6:28 PM 57.2 °F 55.4 °F 94% 29.60 in 2.0 mi WNW 3.5 mph - 0.02 in Rain Light Rain
6:36 PM 57.2 °F 55.4 °F 94% 29.60 in 1.8 mi West 3.5 mph - 0.05 in Rain Rain
6:56 PM 57.0 °F 57.0 °F 100% 29.63 in 1.0 mi WNW 3.5 mph - 0.11 in Rain Light Rain
7:56 PM 57.0 °F 57.0 °F 100% 29.60 in 3.0 mi Calm Calm - 0.05 in Rain Light Rain
8:56 PM 57.2 °F 57.2 °F 100% 29.53 in 10.0 mi WNW 5.8 mph - N/A   Overcast
9:31 PM 57.2 °F 55.4 °F 94% 29.53 in 10.0 mi WNW 10.4 mph - N/A   Overcast
9:56 PM 57.0 °F 55.9 °F 96% 29.55 in 6.0 mi WNW 5.8 mph - N/A   Overcast
10:13 PM 55.4 °F 55.4 °F 100% 29.50 in 10.0 mi Calm Calm - N/A   Mostly Cloudy
10:56 PM 55.9 °F 55.9 °F 100% 29.55 in 10.0 mi West 3.5 mph - N/A   Overcast
11:39 PM 53.6 °F 51.8 °F 94% 29.49 in 10.0 mi WNW 12.7 mph - N/A   Overcast
11:56 PM 53.1 °F 51.1 °F 93% 29.53 in 10.0 mi West 9.2 mph - N/A   Overcast